SWR268A LSZH-LHBP

Flight info

Callsign SWR268A
Flight time N/A
Altitude 29000
Route DEGES Z2 TUNUM/N0428F350 Z209 BIRGI DCT SETAL DCT GOTAR DCT SIRDU DCT OGVUN DCT VAJDI
Aircraft A320/M-SDE3FGHIRWY/LB1

Departure

Time 2026-05-06 15:19
Airport Zürich Airport (LSZH)

Arrival

Time N/A
Airport Budapest Liszt Ferenc International Airport (LHBP)
Time Latitude Longitude Altitude Speed Heading
2026-05-06 14:47 47.44841 8.55873 1383 ft 0 kts 245°
2026-05-06 15:14 47.44836 8.55858 1383 ft 6 kts 245°
2026-05-06 15:14 47.44839 8.55771 1383 ft 11 kts 315°
2026-05-06 15:14 47.44922 8.55710 1383 ft 13 kts
2026-05-06 15:14 47.45016 8.55726 1383 ft 16 kts 349°
2026-05-06 15:15 47.45131 8.55652 1383 ft 18 kts 335°
2026-05-06 15:15 47.45247 8.55580 1383 ft 17 kts 349°
2026-05-06 15:15 47.45363 8.55521 1383 ft 17 kts 335°
2026-05-06 15:15 47.45473 8.55444 1383 ft 17 kts 336°
2026-05-06 15:16 47.45584 8.55366 1383 ft 17 kts 335°
2026-05-06 15:16 47.45672 8.55401 1383 ft 16 kts 92°
2026-05-06 15:16 47.45658 8.55579 1383 ft 17 kts 97°
2026-05-06 15:16 47.45644 8.55759 1383 ft 17 kts 97°
2026-05-06 15:17 47.45632 8.55939 1383 ft 17 kts 95°
2026-05-06 15:17 47.45620 8.56116 1383 ft 17 kts 97°
2026-05-06 15:17 47.45608 8.56294 1383 ft 17 kts 96°
2026-05-06 15:17 47.45595 8.56469 1383 ft 17 kts 97°
2026-05-06 15:18 47.45583 8.56645 1383 ft 17 kts 96°
2026-05-06 15:18 47.45569 8.56828 1383 ft 18 kts 96°
2026-05-06 15:18 47.45585 8.56999 1383 ft 17 kts 33°
2026-05-06 15:18 47.45667 8.56968 1386 ft 9 kts 273°
2026-05-06 15:19 47.45682 8.56736 1384 ft 55 kts 276°
2026-05-06 15:19 47.45750 8.55776 1384 ft 129 kts 275°
2026-05-06 15:19 47.45877 8.54225 1610 ft 164 kts 276°
2026-05-06 15:19 47.46028 8.52559 2326 ft 167 kts 275°
2026-05-06 15:20 47.46146 8.50827 2977 ft 179 kts 273°
2026-05-06 15:20 47.46251 8.48936 3463 ft 193 kts 271°
2026-05-06 15:20 47.45947 8.46954 3878 ft 209 kts 238°
2026-05-06 15:20 47.44809 8.45520 4272 ft 231 kts 202°
2026-05-06 15:21 47.43174 8.45267 4765 ft 253 kts 168°
2026-05-06 15:21 47.41623 8.46620 5340 ft 273 kts 132°
2026-05-06 15:21 47.40857 8.49192 6169 ft 283 kts 97°
2026-05-06 15:21 47.41154 8.52046 7023 ft 288 kts 67°
2026-05-06 15:22 47.42082 8.54674 7891 ft 291 kts 60°
2026-05-06 15:22 47.43080 8.57288 8717 ft 295 kts 62°
2026-05-06 15:22 47.44010 8.59967 9527 ft 298 kts 64°
2026-05-06 15:22 47.44888 8.62728 10310 ft 302 kts 66°
2026-05-06 15:23 47.45701 8.65656 10786 ft 317 kts 73°
2026-05-06 15:23 47.46234 8.68903 11160 ft 334 kts 83°
2026-05-06 15:23 47.46442 8.72360 11757 ft 342 kts 89°
2026-05-06 15:23 47.46513 8.75887 12557 ft 344 kts 91°
2026-05-06 15:24 47.46550 8.79402 13314 ft 347 kts 91°
2026-05-06 15:24 47.46584 8.82991 14046 ft 350 kts 91°
2026-05-06 15:24 47.46620 8.86602 14775 ft 353 kts 91°
2026-05-06 15:24 47.46659 8.90201 15474 ft 357 kts 91°
2026-05-06 15:25 47.46700 8.93852 16155 ft 360 kts 91°
2026-05-06 15:25 47.46742 8.97564 16826 ft 363 kts 91°
2026-05-06 15:25 47.46785 9.01330 17485 ft 366 kts 91°
2026-05-06 15:25 47.46826 9.05114 18119 ft 370 kts 91°
2026-05-06 15:26 47.46866 9.08896 18734 ft 373 kts 91°
2026-05-06 15:26 47.46907 9.12716 19333 ft 376 kts 91°
2026-05-06 15:26 47.46947 9.16623 19922 ft 380 kts 91°
2026-05-06 15:26 47.46984 9.20503 20487 ft 383 kts 92°
2026-05-06 15:27 47.47021 9.24462 21050 ft 386 kts 92°
2026-05-06 15:27 47.47056 9.28436 21597 ft 389 kts 92°
2026-05-06 15:27 47.47090 9.32448 22130 ft 393 kts 92°
2026-05-06 15:27 47.47123 9.36481 22655 ft 396 kts 92°
2026-05-06 15:28 47.47155 9.40559 23163 ft 399 kts 92°
2026-05-06 15:28 47.47185 9.44675 23662 ft 402 kts 92°
2026-05-06 15:28 47.47214 9.48821 24147 ft 405 kts 92°
2026-05-06 15:28 47.47242 9.52931 24598 ft 408 kts 92°
2026-05-06 15:29 47.47270 9.57141 25009 ft 412 kts 93°
2026-05-06 15:29 47.47208 9.61398 25405 ft 415 kts 96°
2026-05-06 15:29 47.47008 9.65676 25798 ft 418 kts 98°
2026-05-06 15:29 47.46774 9.69998 26211 ft 421 kts 99°
2026-05-06 15:30 47.46537 9.74305 26715 ft 421 kts 99°
2026-05-06 15:30 47.46298 9.78616 27213 ft 421 kts 99°
2026-05-06 15:30 47.46059 9.82924 27670 ft 422 kts 100°
2026-05-06 15:30 47.45817 9.87228 28114 ft 423 kts 100°
2026-05-06 15:31 47.45571 9.91571 28612 ft 423 kts 101°
2026-05-06 15:31 47.45328 9.95846 29063 ft 423 kts 101°
2026-05-06 15:31 47.45079 10.00177 29492 ft 424 kts 101°
2026-05-06 15:32 47.44571 10.08871 30286 ft 426 kts 102°
2026-05-06 15:32 47.44315 10.13242 30684 ft 427 kts 102°
2026-05-06 15:32 47.44020 10.17587 30839 ft 428 kts 104°
2026-05-06 15:32 47.43554 10.21937 30841 ft 428 kts 108°
2026-05-06 15:33 47.42387 10.30621 30848 ft 431 kts 109°
2026-05-06 15:33 47.41195 10.39325 30853 ft 432 kts 108°
2026-05-06 15:34 47.40014 10.48005 30857 ft 432 kts 109°
2026-05-06 15:34 47.38828 10.56681 30864 ft 432 kts 109°
2026-05-06 15:35 47.37627 10.65384 30870 ft 431 kts 109°
2026-05-06 15:35 47.36671 10.72291 30874 ft 430 kts 109°
2026-05-06 15:36 47.35257 10.82433 30880 ft 429 kts 109°